Flag for Montenegro Weather past 2 weeks in Podgorica, Montenegro

Now
46 °F

Heavy rain. Mostly cloudy.


Feels Like: 43 °F
Forecast: 40 / 53 °F
Wind: 7 mph from Northwest

Location: Podgorica Titograd

Current Time: Mar 5, 2015 at 2:18:34 AM

Latest Report: Mar 5, 2015 at 2:00 AM


Visibility: 4 mi

Pressure: 29.98 "Hg

Humidity: 100%

Dew point: 46 °F

Location of PodgoricaLocation

Historic Weather in Podgorica — Graph

°F

Podgorica temperature yesterday

Maximum temperature yesterday: 63 °F (at 3:30 PM)
Minimum temperature yesterday: 37 °F (at 6:00 AM)
Average temperature yesterday: 52 °F

Past Weeks' High & Low Weather Summary

 TemperatureHumidityPressure
High64 °F (Mar 3, 1:30 PM)100% (Feb 21, 11:00 PM)30.54 "Hg (Feb 21, 11:00 PM)
Low30 °F (Feb 19, 7:00 AM)13% (Feb 18, 4:00 PM)29.56 "Hg (Feb 25, 1:30 AM)
Average49 °F70%29.99 "Hg
* Reported Feb 18 1:00 AM — Mar 5 1:00 AM, Podgorica, Weather by CustomWeather, © 2015

Note: Actual official high and low records may vary slightly from our data, if they occured in-between our weather recording intervals... More about our weather records

Advertising

Podgorica weather history for previous 24 hours

 ConditionsComfort  
Time TempWeatherWind HumidityBarometerVisibility
1:00 AM
Thu, Mar 5
46 °FRain. Mostly cloudy.8 mph100%29.98 "HgN/A
12:30 AM46 °FRain. Mostly cloudy.8 mph93%30.01 "HgN/A
12:00 AM46 °FRain. Mostly cloudy.7 mph93%30.04 "HgN/A
11:30 PM
Wed, Mar 4
46 °FRain. Mostly cloudy.7 mph93%30.04 "HgN/A
10:00 PM50 °FLight rain. Mostly cloudy.7 mph76%30.07 "HgN/A
9:30 PM52 °FMostly cloudy.3 mph62%30.07 "HgN/A
9:00 PM54 °FPartly cloudy.3 mph58%30.07 "HgN/A
8:30 PM54 °FPartly cloudy.2 mph54%30.07 "HgN/A
8:00 PM54 °FPartly cloudy.6 mph51%30.07 "HgN/A
7:30 PM54 °FPartly cloudy.3 mph58%30.07 "HgN/A
7:00 PM54 °FPartly cloudy.3 mph54%30.09 "HgN/A
6:30 PM55 °FPassing clouds.3 mph51%30.09 "HgN/A
6:00 PM55 °FPassing clouds.3 mph41%30.09 "HgN/A
5:30 PM57 °FPartly sunny.1 mph41%30.09 "HgN/A
5:00 PM59 °FPartly sunny.1 mph34%30.09 "HgN/A
4:30 PM59 °FPartly sunny.3 mph29%30.09 "HgN/A
4:00 PM61 °FPartly sunny.5 mph27%30.12 "HgN/A
3:30 PM63 °FPartly sunny.1 mph27%30.12 "HgN/A
3:00 PM61 °FPartly sunny.2 mph29%30.12 "HgN/A
2:30 PM61 °FPartly sunny.3 mph29%30.15 "HgN/A
2:00 PM61 °FPartly sunny.2 mph25%30.15 "HgN/A
1:30 PM61 °FPartly sunny.2 mph25%30.18 "HgN/A
1:00 PM59 °FPartly sunny.1 mph27%30.18 "HgN/A
12:30 PM59 °FPartly sunny.1 mph27%30.21 "HgN/A
12:00 PM59 °FPartly sunny.2 mph27%30.21 "HgN/A
11:30 AM57 °FSunny.2 mph29%30.24 "Hg10 mi
11:00 AM57 °FSunny.2 mph29%30.24 "Hg10 mi
10:30 AM57 °FSunny.2 mph29%30.24 "Hg10 mi
10:00 AM54 °FSunny.2 mph30%30.27 "Hg10 mi
9:30 AM54 °FSunny.2 mph28%30.27 "Hg10 mi
9:00 AM54 °FPassing clouds.5 mph33%30.27 "HgN/A
8:30 AM50 °FSunny.7 mph37%30.30 "Hg10 mi
8:00 AM48 °FSunny.8 mph43%30.30 "Hg10 mi
7:30 AM45 °FSunny.2 mph49%30.30 "Hg10 mi
7:00 AM39 °FPassing clouds.3 mph61%30.27 "HgN/A
6:30 AM39 °FSunny.5 mph61%30.27 "Hg10 mi
6:00 AM37 °FClear.5 mph65%30.27 "Hg10 mi
5:30 AM41 °FClear.1 mph57%30.27 "Hg10 mi
5:00 AM41 °FClear.2 mph57%30.27 "Hg10 mi
4:30 AM43 °FClear.5 mph53%30.27 "Hg10 mi
4:00 AM45 °FClear.6 mph46%30.27 "Hg10 mi
3:30 AM46 °FClear.7 mph43%30.27 "Hg10 mi
3:00 AM46 °FPassing clouds.7 mph40%30.27 "HgN/A
2:30 AM48 °FClear.8 mph37%30.27 "Hg10 mi
2:00 AM48 °FPassing clouds.8 mph34%30.27 "HgN/A
Weather by CustomWeather, © 2015

See weather overviewHow to use our weather pages